Hourly Data Report for December 11, 2017

All times are specified in Local Standard Time (LST). Add 1 hour to adjust for Daylight Saving Time where and when it is observed.

NORWAY HOUSE
MANITOBA

53°57'30.000" N
97°50'39.000" W
223.70 m
5062040
71410
YNE

Download Data

Hourly Data (December 2017)
Hourly Data Report for December 11, 2017
Temp Definition
°C
Dew Point Temp Definition
°C
Rel Hum Definition
%
Wind Dir Definition
10's deg

Wind Spd Definition
km/h
Visibility Definition
km
Stn Press Definition
kPa
Hmdx Definition


Wind Chill Definition


Weather Definition


TIME
00:00 Legend Double Dagger -13.8 -14.8 92 34 15 4.8 98.46   -21 Snow
01:00 Legend Double Dagger -13.4 -15.3 86 36 24 16.1 98.65   -23 Snow
02:00 Legend Double Dagger -14.7 -17.1 82 35 24 14.5 98.82   -25 Snow
03:00 Legend Double Dagger -16.0 -18.1 84 35 18 16.1 99.01   -25 LegendNANA
04:00 Legend Double Dagger -16.6 -18.6 85 34 15 16.1 99.16   -25 LegendNANA
05:00 Legend Double Dagger -16.9 -18.9 85 34 18 16.1 99.30   -26 LegendNANA
06:00 Legend Double Dagger -17.8 -19.6 86 34 22 16.1 99.44   -28 LegendNANA
07:00 Legend Double Dagger -18.4 -20.3 85 34 17 16.1 99.51   -28 LegendNANA
08:00 Legend Double Dagger -19.1 -20.9 86 32 11 16.1 99.59   -27 LegendNANA
09:00 Legend Double Dagger -19.1 -20.9 86 32 15 16.1 99.65   -28 LegendNANA
10:00 Legend Double Dagger -18.3 -20.4 84 33 13 16.1 99.73   -26 LegendNANA
11:00 Legend Double Dagger -17.2 -20.0 79 33 15 16.1 99.79   -26 LegendNANA
12:00 Legend Double Dagger -16.4 -20.0 74 31 13 16.1 99.80   -24 LegendNANA
13:00 Legend Double Dagger -15.5 -19.6 71 31 13 16.1 99.78   -23 LegendNANA
14:00 Legend Double Dagger -15.2 -19.7 69 33 17 16.1 99.74   -24 LegendNANA
15:00 Legend Double Dagger -15.6 -19.6 72 31 13 16.1 99.80   -23 LegendNANA
16:00 Legend Double Dagger -16.8 -19.8 78 29 5 16.1 99.74   -21 LegendNANA
17:00 Legend Double Dagger -18.7 -20.7 85 27 5 16.1 99.79   -23 LegendNANA
18:00 Legend Double Dagger -20.5 -22.3 86 25 5 16.1 99.78   -25 LegendNANA
19:00 Legend Double Dagger -19.8 -21.4 87 26 5 16.1 99.76   -24 LegendNANA
20:00 Legend Double Dagger -20.9 -22.4 88 LegendMM 4 16.1 99.69   -24 LegendNANA
21:00 Legend Double Dagger -22.7 -24.3 87 26 5 16.1 99.65   -27 LegendNANA
22:00 Legend Double Dagger -22.6 -24.5 85   0 16.1 99.63     LegendNANA
23:00 Legend Double Dagger -21.9 -23.9 85   0 16.1 99.54     LegendNANA

Notes on Data Quality.

Legend

  • E = Estimated
  • M = Missing
  • NA = Not Available
  • ‡ = Partner data that is not subject to review by the National Climate Archives
Date modified: